Location: Czekan�w
(50.3488°N, 18.7344°E)
Time: 04:38:14
(UTC+00:00)

ATLAS CENTAUR R/B - Pass Details

Date: 17 February 2020
Orbit: 466 x 681 km, 64.7° (Epoch: 28 March)

Event Time Altitude Azimuth Distance (km) Brightness Sun altitude
Exits shadow 05:19:23 - 277° (W) 2,230 3.7 -6.2°
Reaches altitude 10° 05:20:05 10° 283° (WNW) 2,015 3.5 -6.0°
Maximum altitude 05:23:34 21° 332° (NNW) 1,382 3.0 -5.5°
Drops below altitude 10° 05:26:54 10° 23° (NNE) 1,918 4.2 -5.0°
Sets 05:29:32 0° 40° (NE) 2,775 5.3 -4.6°
